[[{"header":{"parameterUnit":"m.s-1","parameterCategory":1,"la1":30.2991,"la2":30.254,"lo1":-89.0895,"lo2":-89.0444,"dy":0.0017,"dx":0.0017,"nx":28,"ny":28,"refTime":"2024-12-12T03:00:00:Z","depth":0,"parameterNumber":2,"parameterNumberName":"U-component_of_WINDS"},"data":[0,0,0,0,0,0,0,0,0,0,0,0,0,0,0,0,0,0,0,0,0,0,0,0,0,0,0,0,0,0,0,0,0,0,0,0,0,0,0,0,0,0,0,0,0,0,0,0,0,0,0,0,0,0,0,0,0,0,1.8034,1.8034,0,1.8053,1.8053,1.8054,1.8031,1.803,1.803,1.8029,1.8047,1.8049,1.805,0,0,0,0,0,0,0,0,0,0,0,0,0,1.7976,1.7977,1.8034,1.8034,1.8034,1.8053,1.8053,1.8054,1.8031,1.803,1.8029,1.8028,1.8047,1.8049,1.805,0,0,0,0,0,0,0,0,0,0,0,0,0,1.7999,1.7978,1.8034,1.8025,1.8025,1.8053,1.8053,1.8054,1.8032,1.803,1.8029,1.8028,1.8047,1.8048,1.805,1.8087,0,0,1.8056,1.8057,0,0,0,0,0,0,0,0,1.7998,1.8001,1.8026,1.8026,1.8025,1.8039,1.804,1.8065,1.8032,1.8029,1.8029,1.8027,1.8045,1.8047,1.8054,1.8088,1.8089,1.8056,1.8057,1.8058,1.8059,0,0,0,0,0,0,0,1.7996,1.8,1.8041,1.8027,1.8026,1.802,1.8022,1.8045,1.8044,1.8029,1.8028,1.803,1.8045,1.8052,1.8054,1.8089,1.8056,1.8058,1.8059,1.806,1.8154,1.8156,0,0,0,0,0,0,1.7996,1.7999,1.8041,1.8042,1.8008,1.8022,1.8024,1.8036,1.8044,1.8044,1.8031,1.8029,1.8049,1.8052,1.8055,1.8098,1.8058,1.806,1.8061,1.8153,1.8155,1.8156,0,0,0,0,0,0,1.7995,1.8,1.804,1.802,1.8025,1.8025,1.8037,1.8037,1.8044,1.8045,1.8045,1.8039,1.8048,1.8052,1.8079,1.8098,1.8061,1.8063,1.8151,1.8153,1.8155,1.8184,0,0,0,0,0,0,1.7993,1.7999,1.8014,1.8021,1.8026,1.8065,1.8039,1.8038,1.8047,1.8044,1.8052,1.8052,1.8048,1.8076,1.8081,1.81,1.8064,1.815,1.8152,1.8155,1.8182,1.8187,1.8192,0,0,0,0,0,1.7991,1.8021,1.8014,1.802,1.8044,1.8066,1.8069,1.8063,1.8049,1.8063,1.8064,1.8052,1.8096,1.8079,1.8085,1.8104,1.8148,1.8152,1.8155,1.8179,1.8186,1.8192,0,0,0,0,0,0,1.8016,1.8022,1.8015,1.8048,1.8056,1.8062,1.8079,1.8071,1.8083,1.808,1.8073,1.8075,1.8104,1.8107,1.8089,1.814,1.8119,1.8124,1.8137,1.8143,1.8148,1.8146,1.8066,0,0,0,0,0,1.8025,1.8043,1.8047,1.8076,1.8081,1.808,1.8089,1.8084,1.8093,1.8096,1.8099,1.8108,1.8123,1.8134,1.8148,1.8183,1.8183,1.8199,1.8204,1.8208,1.8211,1.8229,1.8235,1.8166,1.8166,1.8166,0,0,1.8044,1.805,1.8061,1.8081,1.8087,1.8105,1.8083,1.8103,1.8116,1.8099,1.8125,1.8128,1.8137,1.8168,1.8181,1.8171,1.8231,1.8212,1.8215,1.8216,1.8233,1.8239,1.8245,1.8168,1.8168,1.8168,0,0,1.8088,1.8095,1.8119,1.8126,1.8136,1.8135,1.8141,1.8148,1.8149,1.8175,1.8163,1.8178,1.8206,1.8212,1.8219,1.8267,1.8256,1.8272,1.8297,1.8315,1.832,1.8325,1.8341,1.8347,1.8275,1.8275,1.8275,0,1.811,1.8137,1.8132,1.8153,1.8162,1.8148,1.8173,1.8179,1.8194,1.82,1.8188,1.8222,1.8227,1.8259,1.8271,1.8277,1.8283,1.827,1.832,1.8325,1.8329,1.8344,1.835,1.8277,1.8277,1.8277,1.8276,0,1.8164,1.8183,1.8201,1.8216,1.8227,1.8249,1.8247,1.8259,1.8253,1.8254,1.828,1.8286,1.8301,1.8309,1.8304,1.834,1.8333,1.8321,1.83,1.8337,1.8351,1.8357,1.828,1.8279,1.8278,1.8278,0,0,1.8223,1.8234,1.8241,1.8247,1.8257,1.8272,1.8294,1.8309,1.8319,1.8329,1.8347,1.837,1.8359,1.8367,1.8363,1.8378,1.8414,1.8364,1.8364,1.8372,1.8454,1.8462,1.8468,1.8408,1.8409,1.841,1.8452,0,1.8266,1.8304,1.83,1.8336,1.8353,1.8341,1.836,1.8368,1.8369,1.8383,1.8385,1.8401,1.8386,1.839,1.8405,1.8407,1.843,1.8404,1.8423,1.8424,1.842,1.8476,1.8484,1.8524,1.8458,1.8459,1.846,0,1.8321,1.8333,1.8371,1.8379,1.8386,1.8403,1.8416,1.8431,1.844,1.8439,1.8449,1.8442,1.8463,1.8443,1.8472,1.8454,1.8462,1.8464,1.8466,1.8466,1.8443,1.8476,1.8537,1.8542,1.8468,1.8468,1.8467,0,1.8358,1.8385,1.841,1.8416,1.8426,1.8438,1.8443,1.8451,1.846,1.8472,1.8478,1.8493,1.85,1.8511,1.8508,1.8494,1.8538,1.8517,1.8537,1.8537,1.8545,1.8545,1.8607,1.8553,1.8553,1.8553,1.8553,0,1.8406,1.8429,1.8427,1.8443,1.8468,1.8464,1.849,1.8493,1.85,1.8516,1.8507,1.8521,1.8517,1.8532,1.853,1.8554,1.8558,1.8557,1.8556,1.8557,1.8557,1.8561,1.8558,1.8555,1.8554,1.8554,1.8554,0,1.8451,1.8451,1.8478,1.8485,1.8488,1.8506,1.8512,1.8527,1.8528,1.8548,1.8552,1.8553,1.857,1.8569,1.8588,1.8586,1.8615,1.8612,1.8612,1.8611,1.863,1.8628,1.8696,1.8704,1.8647,1.8647,1.8648,0,1.848,1.8498,1.8507,1.8517,1.8523,1.8539,1.8549,1.8546,1.8556,1.8568,1.8581,1.8597,1.861,1.8637,1.8639,1.8654,1.8649,1.8672,1.8651,1.8652,1.8648,1.8646,1.8648,1.8676,1.8676,1.8677,1.8677,0,1.8532,1.8531,1.8546,1.856,1.8572,1.8584,1.8594,1.8602,1.86,1.8612,1.863,1.864,1.8659,1.8675,1.8689,1.8693,1.8684,1.8684,1.8689,1.869,1.8689,1.8688,1.8622,1.8682,1.8682,1.8681,1.8681,1.8681,1.8569,1.8584,1.8593,1.8609,1.8617,1.8627,1.8641,1.8644,1.8658,1.8674,1.8671,1.869,1.8699,1.8717,1.8723,1.8737,1.8729,1.8737,1.8738,1.874,1.8741,1.8688,1.874,1.874,1.874,1.874,1.8739,0,1.862,1.8625,1.864,1.8655,1.8668,1.866,1.8671,1.8682,1.8699,1.8708,1.8721,1.874,1.8756,1.876,1.8774,1.8785,1.8782,1.8789,1.8787,1.8788,1.8749,1.8742,1.8792,1.8792,1.8792,1.8792,1.8792,1.8792,1.8647,1.8671,1.8672,1.87,1.8705,1.8724,1.8731,1.874,1.8747,1.8769,1.8782,1.8785,1.8792,1.8807,1.8821,1.8821,1.8827,1.8835,1.8834,1.8797,1.8791,1.8786,1.878,1.8837,1.8837,1.8873,1.8873,1.8873]},{"header":{"parameterUnit":"m.s-1","parameterCategory":1,"la1":30.2991,"la2":30.254,"lo1":-89.0895,"lo2":-89.0444,"dy":0.0017,"dx":0.0017,"nx":28,"ny":28,"refTime":"2024-12-12T03:00:00:Z","depth":0,"parameterNumber":3,"parameterNumberName":"V-component_of_WINDS"},"data":[0,0,0,0,0,0,0,0,0,0,0,0,0,0,0,0,0,0,0,0,0,0,0,0,0,0,0,0,0,0,0,0,0,0,0,0,0,0,0,0,0,0,0,0,0,0,0,0,0,0,0,0,0,0,0,0,0,0,-3.473,-3.4731,0,-3.4883,-3.4885,-3.4887,-3.4855,-3.4853,-3.485,-3.4847,-3.5004,-3.5011,-3.5017,0,0,0,0,0,0,0,0,0,0,0,0,0,-3.441,-3.4416,-3.4729,-3.4731,-3.4733,-3.4883,-3.4885,-3.4887,-3.4856,-3.4853,-3.4849,-3.4846,-3.5002,-3.501,-3.5018,0,0,0,0,0,0,0,0,0,0,0,0,0,-3.4554,-3.4418,-3.4729,-3.4736,-3.4738,-3.4882,-3.4885,-3.4888,-3.4857,-3.4852,-3.4848,-3.4844,-3.4999,-3.5009,-3.5019,-3.5166,0,0,-3.505,-3.5055,0,0,0,0,0,0,0,0,-3.4546,-3.4566,-3.4733,-3.4736,-3.4738,-3.4846,-3.483,-3.4981,-3.4858,-3.4812,-3.4847,-3.4842,-3.4955,-3.4968,-3.5006,-3.5174,-3.518,-3.5051,-3.5057,-3.5062,-3.5064,0,0,0,0,0,0,0,-3.4536,-3.4559,-3.479,-3.4735,-3.4739,-3.4731,-3.4747,-3.4858,-3.4905,-3.4815,-3.4813,-3.4832,-3.4955,-3.4997,-3.501,-3.5183,-3.5051,-3.506,-3.5066,-3.507,-3.548,-3.5485,0,0,0,0,0,0,-3.4524,-3.4551,-3.4785,-3.4795,-3.463,-3.474,-3.4758,-3.4816,-3.4904,-3.4913,-3.4835,-3.483,-3.4981,-3.4998,-3.5015,-3.5195,-3.5061,-3.5071,-3.5077,-3.5475,-3.5481,-3.5486,0,0,0,0,0,0,-3.4517,-3.4545,-3.4779,-3.4673,-3.4702,-3.475,-3.4815,-3.4821,-3.4862,-3.4919,-3.4927,-3.4869,-3.4979,-3.5001,-3.5129,-3.52,-3.5076,-3.5085,-3.547,-3.5477,-3.5484,-3.5554,0,0,0,0,0,0,-3.4508,-3.4543,-3.4599,-3.4674,-3.4708,-3.4891,-3.4819,-3.4827,-3.488,-3.4874,-3.4952,-3.4961,-3.4977,-3.5114,-3.5139,-3.5211,-3.5093,-3.5464,-3.5473,-3.5481,-3.5546,-3.5563,-3.5577,0,0,0,0,0,-3.4497,-3.4612,-3.4602,-3.463,-3.4779,-3.4895,-3.4914,-3.493,-3.4885,-3.4943,-3.4979,-3.4959,-3.5188,-3.5128,-3.5156,-3.5232,-3.5459,-3.547,-3.5481,-3.5538,-3.5559,-3.5577,0,0,0,0,0,0,-3.4543,-3.4622,-3.4612,-3.4755,-3.4819,-3.4889,-3.4962,-3.4951,-3.5028,-3.502,-3.5036,-3.5054,-3.5185,-3.5221,-3.5153,-3.538,-3.5317,-3.5334,-3.5351,-3.5372,-3.5387,-3.5376,-3.5101,0,0,0,0,0,-3.457,-3.4658,-3.4722,-3.4842,-3.4875,-3.4913,-3.4964,-3.4971,-3.5037,-3.5064,-3.511,-3.5175,-3.5262,-3.5319,-3.5401,-3.555,-3.5568,-3.5617,-3.5632,-3.5645,-3.566,-3.5743,-3.5766,-3.5522,-3.5522,-3.5521,0,0,-3.4627,-3.4681,-3.4735,-3.4853,-3.4903,-3.4994,-3.4936,-3.5034,-3.5101,-3.5079,-3.5203,-3.524,-3.5313,-3.5453,-3.5517,-3.5487,-3.5731,-3.5659,-3.5669,-3.5676,-3.5756,-3.5779,-3.58,-3.5529,-3.5528,-3.5526,0,0,-3.4777,-3.4826,-3.4932,-3.4984,-3.5061,-3.5086,-3.5111,-3.5185,-3.5208,-3.5333,-3.5319,-3.5399,-3.5548,-3.5602,-3.5649,-3.582,-3.5805,-3.5847,-3.593,-3.601,-3.603,-3.6047,-3.6109,-3.6132,-3.5861,-3.5861,-3.5861,0,-3.4838,-3.4974,-3.4988,-3.5088,-3.5141,-3.5125,-3.5234,-3.5283,-3.5383,-3.542,-3.5385,-3.5573,-3.5621,-3.5774,-3.5816,-3.5854,-3.5885,-3.5838,-3.6026,-3.6043,-3.6059,-3.6119,-3.6143,-3.5866,-3.5865,-3.5865,-3.5864,0,-3.5045,-3.514,-3.5216,-3.5314,-3.5375,-3.5479,-3.551,-3.557,-3.5572,-3.5601,-3.5729,-3.5787,-3.5882,-3.5919,-3.5921,-3.6073,-3.6052,-3.6022,-3.5959,-3.6087,-3.6144,-3.6167,-3.5873,-3.5871,-3.587,-3.5868,0,0,-3.5228,-3.5334,-3.5362,-3.5407,-3.5491,-3.5564,-3.5668,-3.5761,-3.5813,-3.5883,-3.5971,-3.6097,-3.607,-3.6123,-3.6132,-3.6202,-3.6337,-3.6163,-3.6165,-3.6195,-3.6509,-3.6533,-3.6559,-3.6327,-3.6331,-3.6335,-3.6503,0,-3.5387,-3.5569,-3.5586,-3.575,-3.5838,-3.5825,-3.5915,-3.5977,-3.6007,-3.6087,-3.6119,-3.621,-3.6166,-3.6198,-3.6268,-3.6306,-3.64,-3.6293,-3.6409,-3.6413,-3.6392,-3.6588,-3.6613,-3.6769,-3.6525,-3.6529,-3.6532,0,-3.5596,-3.5673,-3.5846,-3.5919,-3.5957,-3.6038,-3.6125,-3.6201,-3.6271,-3.6288,-3.6349,-3.6348,-3.6455,-3.6388,-3.6536,-3.6463,-3.6512,-3.6538,-3.6544,-3.6556,-3.6481,-3.6607,-3.6819,-3.6843,-3.6567,-3.6564,-3.6561,0,-3.5714,-3.586,-3.5983,-3.6022,-3.611,-3.6167,-3.6207,-3.6273,-3.6328,-3.6405,-3.6441,-3.6529,-3.6578,-3.6646,-3.6669,-3.6618,-3.6817,-3.6752,-3.6835,-3.6835,-3.6878,-3.6875,-3.7103,-3.6908,-3.6907,-3.6907,-3.6906,0,-3.5889,-3.5996,-3.6038,-3.6113,-3.6233,-3.6251,-3.6369,-3.6405,-3.6465,-3.6547,-3.6541,-3.6619,-3.6644,-3.6727,-3.6746,-3.6867,-3.6888,-3.6905,-3.6909,-3.6907,-3.6905,-3.6939,-3.6929,-3.6913,-3.6912,-3.6911,-3.691,0,-3.6041,-3.6073,-3.6207,-3.628,-3.6301,-3.6386,-3.6448,-3.6522,-3.6551,-3.6656,-3.6682,-3.6727,-3.6824,-3.6854,-3.6971,-3.6983,-3.7125,-3.7119,-3.7102,-3.7103,-3.7185,-3.7177,-3.7443,-3.748,-3.7259,-3.7261,-3.7263,0,-3.6152,-3.6234,-3.6316,-3.6372,-3.6414,-3.6502,-3.656,-3.6581,-3.6641,-3.6728,-3.6791,-3.6887,-3.6965,-3.7121,-3.7165,-3.7254,-3.7251,-3.7338,-3.7264,-3.726,-3.7254,-3.7249,-3.7258,-3.7352,-3.7354,-3.7356,-3.7358,0,-3.6345,-3.6357,-3.644,-3.6529,-3.6597,-3.6668,-3.6736,-3.6782,-3.6813,-3.6881,-3.698,-3.7041,-3.7161,-3.7257,-3.7348,-3.7389,-3.738,-3.7381,-3.7405,-3.7404,-3.7391,-3.74,-3.7141,-3.7374,-3.7373,-3.7372,-3.7371,-3.737,-3.6481,-3.6554,-3.6624,-3.6716,-3.677,-3.6834,-3.6907,-3.6946,-3.7029,-3.7129,-3.7136,-3.7244,-3.7313,-3.7435,-3.7481,-3.7566,-3.7541,-3.7576,-3.7585,-3.7593,-3.7601,-3.7377,-3.7583,-3.7582,-3.7582,-3.7581,-3.7581,0,-3.6675,-3.6719,-3.6804,-3.6901,-3.6974,-3.6958,-3.7033,-3.7096,-3.7191,-3.7256,-3.7334,-3.7449,-3.7543,-3.7594,-3.7687,-3.7746,-3.7744,-3.777,-3.7766,-3.7776,-3.7617,-3.7588,-3.777,-3.777,-3.777,-3.777,-3.777,-3.777,-3.6785,-3.6908,-3.6928,-3.7078,-3.7122,-3.7228,-3.7272,-3.7332,-3.7385,-3.7514,-3.7592,-3.7624,-3.7685,-3.7783,-3.7868,-3.7881,-3.7916,-3.7945,-3.7956,-3.7806,-3.7787,-3.7769,-3.7741,-3.7953,-3.7953,-3.8108,-3.8109,-3.811]}]]